Wetbulb
44.21 50.23 53.93 55.93 56.59 56.44 53.10 52.53 49.70 52.04 52.68 55.60 56.48 56.88 59.03 61.38 62.54 62.53 62.05 63.83 64.20 64.91 66.07 68.64 71.35 72.37 72.35 71.57 70.93 69.51 67.77 66.52 65.63 65.30 65.39 65.37 64.99 64.72 63.78 63.01 62.11 61.60 60.02 59.31
42.32 50.05 53.88 54.23 56.95 56.73 56.27 56.30 54.79 54.13 54.36 58.21 58.76 57.25 59.97 60.10 60.96 61.50 63.02 65.24 68.08 69.96 71.00 72.05 71.96 71.71 71.04 69.76 68.59 67.51 65.94 64.92 64.95 64.59 64.17 63.70 64.58 63.34 62.20 61.56 60.98 59.57 57.91 57.69
37.54 49.69 51.96 49.99 54.25 54.96 56.27 57.50 56.62 52.06 55.28 58.18 57.22 58.32 59.89 60.31 61.89 63.20 65.92 69.00 70.62 71.37 72.48 72.68 71.84 71.13 69.32 68.24 67.38 65.86 64.88 64.57 64.37 63.38 62.88 62.96 62.85 61.71 60.44 59.86 59.01 57.93 57.12 56.13
38.92 45.04 41.00 49.98 58.44 58.47 56.63 57.86 58.76 58.48 57.94 58.45 58.32 60.39 61.38 63.01 63.26 65.95 69.05 70.03 71.39 72.70 72.98 72.11 71.39 69.81 68.38 67.19 65.48 64.72 63.89 63.85 64.50 64.11 63.32 62.25 61.76 60.55 59.58 59.04 58.46 57.78 56.44 54.14
38.98 37.71 44.11 52.01 54.55 54.37 54.50 54.47 59.82 58.75 59.90 59.59 60.66 60.87 60.70 64.36 66.80 69.29 70.32 71.42 72.78 73.97 72.39 71.00 69.61 68.63 67.35 65.92 64.54 64.03 64.29 65.10 64.74 64.26 63.01 62.71 61.97 60.90 60.93 59.06 58.02 56.76 54.20 52.46
39.86 37.33 38.19 46.49 56.57 59.89 59.02 50.81 59.75 59.93 59.71 59.49 59.71 56.60 59.55 63.36 69.24 70.38 71.88 72.73 73.46 73.30 71.67 69.94 68.53 68.01 66.41 64.80 64.00 64.37 65.28 64.81 64.93 64.57 63.74 62.57 62.18 61.66 59.07 58.60 57.80 55.90 53.20 52.39
40.38 40.50 42.81 49.70 56.68 58.78 49.48 51.19 60.37 61.42 60.65 59.66 57.84 60.08 62.83 66.40 70.44 72.07 72.68 73.40 74.24 72.65 70.53 68.89 68.34 67.57 65.65 64.84 63.87 65.57 66.05 65.49 65.02 64.30 63.52 62.85 61.30 59.50 58.14 56.96 53.78 50.63 50.49 50.01
40.69 40.00 40.67 52.61 53.47 52.83 54.94 57.56 60.87 61.52 61.25 59.75 60.33 60.44 62.77 68.38 70.40 71.71 72.47 73.21 73.36 71.06 68.98 68.32 67.96 67.11 65.20 64.25 66.20 66.54 66.21 65.49 64.77 64.12 64.94 62.72 60.31 58.44 56.68 53.78 51.00 49.92 49.58 50.23
45.67 45.01 50.83 52.44 52.05 56.00 58.52 58.33 60.04 61.99 61.66 61.06 60.48 60.30 63.68 68.07 70.66 71.82 72.86 73.18 71.92 69.41 67.85 67.64 67.58 67.22 65.07 65.82 67.19 66.50 65.60 64.50 64.26 64.14 62.91 61.67 60.00 58.35 56.21 52.78 50.69 49.63 48.80 48.26
46.77 49.36 51.01 52.83 55.38 57.41 58.60 58.63 61.16 61.21 62.24 62.13 60.44 61.69 64.03 69.20 70.87 71.66 72.80 72.32 70.28 68.54 67.10 66.28 66.96 67.07 66.16 67.49 67.31 65.94 64.54 63.90 63.83 63.30 61.70 61.16 60.69 60.41 58.71 55.76 53.07 52.68 50.40 48.61
45.70 49.75 52.16 54.18 54.69 57.33 59.67 61.46 61.79 62.80 62.88 61.99 62.08 61.43 64.35 69.66 70.94 72.16 72.89 71.41 69.70 68.69 67.43 66.34 66.99 66.32 67.31 67.44 66.72 64.99 64.27 64.04 63.43 62.97 61.43 59.32 56.82 57.82 59.70 58.53 57.29 55.85 55.19 52.24
48.19 54.75 50.33 53.58 56.03 60.01 60.82 62.27 63.16 62.79 63.51 64.25 63.23 62.49 65.00 70.23 71.66 72.53 72.05 69.76 69.41 68.16 67.22 66.79 66.73 66.41 67.26 67.43 66.37 64.79 63.61 63.85 62.90 61.82 58.41 54.09 51.68 48.30 48.96 47.99 47.16 48.75 50.79 52.50
50.69 53.95 57.34 59.23 56.13 59.81 58.78 61.17 60.24 62.38 64.18 66.57 68.20 65.85 68.70 70.59 71.72 70.08 70.43 69.64 68.51 67.70 67.55 66.87 66.30 66.28 67.21 67.15 66.14 64.56 63.84 63.69 62.42 60.80 54.83 51.02 48.45 48.41 46.87 47.38 47.06 46.46 47.54 47.66
50.58 51.43 57.73 58.73 55.55 58.35 58.08 62.85 61.60 63.46 65.93 69.76 70.33 69.41 69.27 69.67 69.12 68.30 68.50 68.39 68.37 68.05 67.64 66.84 66.07 65.97 67.22 66.91 65.78 64.65 64.38 59.95 62.15 60.53 55.11 51.51 49.19 48.61 48.29 48.84 47.52 47.13 46.56 45.93
52.41 60.09 60.84 62.17 62.67 62.59 64.78 63.92 59.79 62.09 63.94 66.52 69.27 70.54 70.33 68.54 67.57 67.38 67.94 68.44 67.81 67.39 67.37 66.88 65.80 65.58 67.19 66.71 65.41 64.62 64.29 63.79 62.11 59.97 55.57 53.04 50.51 48.56 47.93 47.15 46.91 46.91 46.87 46.51
55.23 59.09 61.52 61.07 61.64 62.62 63.14 63.04 61.54 61.30 64.58 65.72 64.64 66.21 68.78 69.67 68.87 66.68 68.64 68.44 66.93 66.52 67.32 66.80 65.79 66.13 66.84 66.43 65.36 64.74 64.32 62.96 61.84 59.68 56.32 53.39 51.68 49.67 47.96 47.37 47.54 48.16 47.49 47.20
49.51 53.06 59.17 59.22 60.37 61.01 61.89 63.60 62.60 63.37 64.21 66.55 66.17 65.36 67.53 65.37 65.47 65.34 67.84 68.65 68.81 68.20 67.95 67.13 65.89 66.44 66.78 66.42 65.47 65.08 64.99 63.87 63.03 60.30 58.00 55.97 53.99 51.88 51.03 50.34 49.49 49.53 49.90 49.81
51.30 54.24 60.39 59.96 60.70 61.13 61.78 63.32 64.01 63.90 64.27 64.64 63.46 62.83 66.34 66.60 65.91 64.66 66.52 67.44 68.24 68.13 68.18 67.91 66.73 66.52 66.59 66.44 65.88 65.45 65.19 64.30 63.70 60.62 59.32 57.84 56.43 55.61 54.26 53.21 52.44 51.61 51.57 50.46
53.99 61.96 66.39 66.13 64.08 65.74 63.37 65.02 63.77 63.56 65.65 64.10 64.18 62.81 62.73 63.43 63.21 65.20 68.05 68.04 67.72 67.01 67.77 68.18 65.23 65.97 66.23 66.48 65.86 65.75 64.85 64.35 63.55 61.87 60.76 58.52 58.30 58.60 58.05 56.97 55.72 55.33 54.35 53.04
58.92 66.75 66.94 66.83 69.76 69.02 65.86 67.32 66.62 64.07 65.64 64.41 66.13 63.74 62.42 63.27 63.72 68.54 68.73 67.63 68.37 69.05 69.73 68.22 65.98 66.39 66.27 66.65 65.66 65.80 64.72 64.74 62.88 62.50 61.36 60.52 60.20 59.97 59.84 56.70 58.79 57.04 55.50 54.79
64.57 66.44 66.55 67.37 69.14 70.55 70.37 69.20 67.31 68.03 67.23 69.14 68.29 65.18 62.37 65.13 69.76 69.59 68.02 67.11 68.95 68.41 69.66 65.52 67.09 67.02 66.75 66.44 65.64 65.79 65.20 64.31 63.81 63.12 62.21 61.88 61.27 61.12 61.17 60.56 59.14 55.91 55.44 54.52
63.34 65.44 66.24 67.34 68.68 68.34 69.49 70.09 71.14 71.55 68.51 69.64 70.61 70.39 70.24 69.48 69.75 69.27 69.39 68.60 69.25 62.00 68.54 67.40 68.12 66.19 66.69 65.65 66.45 65.43 65.09 64.64 64.22 63.98 63.62 63.08 62.46 61.72 60.81 59.13 56.20 54.84 53.33 53.08
63.10 64.64 66.72 66.59 66.64 66.61 68.21 69.11 69.86 71.34 71.55 71.51 71.38 70.75 70.49 69.99 69.86 68.13 66.33 67.44 69.19 64.89 69.47 68.81 66.13 62.31 62.39 66.58 66.33 65.08 64.75 64.72 64.14 63.90 63.98 63.32 63.10 62.58 61.70 59.80 57.48 55.25 54.12 53.29
62.22 64.16 64.18 65.44 66.32 65.92 66.12 66.93 68.94 69.58 72.21 71.77 70.68 70.44 70.14 68.26 67.14 67.67 67.24 62.78 61.43 62.17 68.95 68.34 63.67 60.47 61.10 66.82 65.51 62.57 63.61 64.88 64.50 63.91 63.75 58.00 64.31 64.06 62.84 60.57 57.09 53.75 53.84 51.72
61.87 62.26 62.46 63.09 62.86 62.65 64.01 65.60 67.64 68.21 68.12 68.03 69.75 70.29 69.57 69.55 68.77 67.55 67.58 66.61 58.82 65.71 68.06 59.06 59.68 59.49 65.59 66.19 65.13 63.76 63.50 64.73 65.42 64.81 64.59 63.42 61.52 59.74 58.14 56.68 56.16 54.06 54.13 54.64
60.58 61.76 62.03 61.56 62.23 63.49 65.02 66.45 66.35 66.85 66.00 66.41 66.45 67.58 68.60 68.83 68.01 68.62 67.73 63.97 66.83 64.44 66.78 64.08 64.41 63.98 66.21 65.75 64.33 64.50 63.85 64.52 63.47 63.76 63.42 60.35 57.57 56.91 56.55 55.28 54.37 54.09 55.00 54.81
60.14 56.20 61.14 61.98 61.86 62.47 62.59 64.16 65.68 65.47 65.34 65.55 65.18 65.61 66.01 67.11 67.57 67.04 63.38 66.17 65.89 67.12 66.41 66.51 65.85 62.93 65.58 63.95 62.77 62.46 61.80 61.11 58.18 59.70 58.66 57.41 56.19 55.38 55.11 54.50 55.34 54.59 55.73 55.31
MSLP
1001.37 1001.23 1001.88 1002.83 1005.25 1006.27 1006.67 1007.21 1007.07 1004.99 1005.23 1003.76 1003.54 1002.84 1002.57 1002.89 1003.75 1004.91 1006.06 1006.92 1007.77 1008.76 1009.66 1010.30 1011.12 1011.85 1012.51 1013.11 1013.77 1014.31 1015.23 1016.10 1016.85 1017.24 1017.57 1018.04 1018.44 1018.85 1019.16 1019.43 1019.84 1019.97 1020.07 1020.25
1001.62 1001.12 1001.66 1002.37 1003.69 1004.16 1004.89 1005.36 1005.12 1004.96 1004.15 1002.33 1002.23 1002.51 1002.24 1002.80 1003.69 1004.71 1005.73 1006.65 1007.68 1008.51 1009.46 1010.37 1011.28 1012.13 1013.00 1013.60 1014.27 1014.79 1015.68 1016.57 1017.22 1017.63 1018.15 1018.54 1018.79 1019.17 1019.58 1020.05 1020.37 1020.54 1020.81 1020.89
1002.68 1001.53 1001.50 1002.11 1002.62 1002.93 1003.15 1003.80 1003.39 1004.11 1002.52 1001.48 1001.45 1001.87 1002.13 1002.31 1003.23 1004.19 1005.40 1006.44 1007.29 1008.19 1009.22 1010.25 1011.23 1011.97 1013.10 1014.03 1014.80 1015.47 1016.06 1016.81 1017.37 1017.88 1018.32 1018.83 1019.27 1019.71 1020.19 1020.60 1020.87 1021.15 1021.29 1021.16
1003.55 1002.78 1001.91 1000.20 1000.27 999.85 1001.10 1001.52 1001.76 1001.83 1001.25 1000.60 1000.55 1000.65 1001.46 1001.49 1002.71 1003.79 1005.06 1006.19 1007.22 1008.13 1009.41 1010.39 1011.39 1012.48 1013.37 1014.37 1015.21 1015.90 1016.61 1017.14 1017.64 1018.10 1018.67 1019.24 1019.70 1020.21 1020.61 1020.93 1021.21 1021.40 1021.51 1021.50
1004.11 1003.23 1001.47 999.80 999.59 999.90 1000.06 1000.43 1000.35 1000.68 1000.12 1000.34 1000.32 1000.36 1001.44 1001.01 1001.83 1002.94 1004.21 1005.33 1006.56 1007.31 1008.88 1010.28 1011.43 1012.51 1013.44 1014.58 1015.31 1016.02 1016.70 1017.22 1017.69 1018.04 1018.75 1019.39 1020.05 1020.62 1020.99 1021.24 1021.46 1021.59 1021.67 1021.58
1004.37 1003.32 1001.72 999.41 998.02 997.88 998.20 999.23 998.88 998.56 998.64 999.36 1000.01 1000.25 1000.83 1001.45 1001.74 1003.20 1004.26 1005.36 1006.69 1007.70 1008.96 1010.25 1011.66 1012.55 1013.42 1014.44 1015.14 1015.86 1016.46 1016.98 1017.58 1018.08 1018.63 1019.31 1019.89 1020.43 1020.89 1021.17 1021.49 1021.66 1021.85 1021.78
1004.15 1003.03 1000.84 998.26 997.28 997.51 998.08 998.24 997.28 997.70 997.62 998.20 999.29 999.42 1000.00 1001.00 1002.07 1002.74 1003.92 1005.37 1006.53 1007.55 1008.74 1010.19 1011.45 1012.53 1013.55 1014.31 1015.05 1015.57 1016.13 1016.72 1017.48 1018.07 1018.52 1019.09 1019.71 1020.33 1020.86 1021.33 1021.76 1022.02 1022.19 1022.23
1003.47 1002.28 1000.39 997.47 997.29 997.03 996.74 996.44 996.20 996.65 997.09 998.08 998.67 999.61 1000.40 1000.61 1001.82 1003.15 1004.35 1005.71 1006.64 1007.85 1009.23 1010.34 1011.17 1012.02 1013.29 1014.16 1014.95 1015.54 1016.15 1016.71 1017.31 1017.84 1018.37 1018.98 1019.62 1020.33 1020.83 1021.41 1021.95 1022.32 1022.49 1022.63
1002.42 1000.72 998.84 997.86 997.44 996.07 995.53 995.73 995.53 995.89 996.25 997.46 998.46 998.99 999.99 1000.29 1001.56 1002.66 1003.72 1005.13 1006.44 1007.63 1009.23 1010.39 1011.01 1011.64 1012.83 1013.88 1014.65 1015.59 1016.35 1016.82 1017.26 1017.74 1018.25 1018.75 1019.42 1020.34 1021.00 1021.47 1021.86 1022.38 1022.51 1022.67
1002.19 1000.20 998.45 997.71 996.92 995.95 995.08 994.91 994.89 995.09 995.64 996.94 997.82 998.58 999.53 999.89 1001.09 1002.31 1003.65 1004.75 1006.10 1007.65 1009.10 1010.14 1010.84 1011.61 1012.51 1013.59 1014.40 1015.39 1016.32 1016.88 1017.28 1017.74 1018.28 1018.85 1019.39 1019.93 1020.59 1021.24 1021.64 1021.99 1022.42 1022.66
1002.07 1000.42 998.86 996.79 997.08 996.33 995.20 995.03 994.38 994.69 995.31 996.42 997.44 998.70 998.99 999.76 1000.65 1001.80 1003.12 1004.72 1005.69 1006.77 1008.19 1009.27 1010.31 1011.29 1012.24 1013.26 1014.03 1015.19 1016.14 1016.86 1017.35 1017.92 1018.50 1019.10 1019.74 1020.13 1020.32 1020.61 1020.97 1021.61 1022.17 1022.52
1002.99 1000.93 999.57 996.64 996.48 996.12 995.94 995.32 995.34 995.14 995.63 996.31 997.15 997.80 998.56 999.73 999.94 1001.47 1002.97 1004.54 1005.83 1006.86 1007.89 1008.89 1009.88 1010.81 1011.74 1012.64 1013.55 1014.55 1015.78 1016.58 1017.11 1017.98 1018.80 1019.37 1019.96 1020.49 1020.59 1020.74 1020.87 1021.13 1021.53 1021.89
1004.41 1001.81 1000.04 997.10 995.56 995.27 995.64 995.02 993.98 994.33 995.66 996.76 996.84 997.45 998.26 1000.05 1000.31 1001.46 1002.78 1003.93 1004.84 1005.74 1006.88 1008.08 1009.46 1010.55 1011.15 1011.89 1012.85 1013.95 1014.92 1015.97 1016.93 1017.76 1018.53 1019.27 1019.85 1020.14 1020.72 1021.04 1020.96 1021.01 1021.34 1021.76
1003.42 1002.30 998.87 996.59 995.47 994.69 994.87 995.10 994.28 994.60 995.67 996.27 997.66 998.28 998.92 1000.65 1001.98 1003.17 1003.71 1004.64 1005.74 1006.78 1006.90 1007.66 1008.61 1009.50 1010.49 1011.33 1012.36 1013.62 1014.64 1015.54 1016.39 1017.29 1018.12 1018.86 1019.68 1020.19 1020.42 1020.64 1021.08 1021.59 1021.87 1022.14
1003.34 1001.48 999.66 997.20 995.10 994.81 994.03 994.46 994.84 995.53 995.99 996.41 997.44 997.62 998.23 1000.41 1002.19 1003.43 1004.61 1004.60 1004.93 1006.42 1008.44 1008.27 1008.26 1009.06 1010.08 1011.35 1012.20 1013.13 1014.19 1015.13 1016.03 1016.95 1017.79 1018.50 1019.30 1019.90 1020.28 1020.36 1020.60 1021.09 1021.67 1021.98
1002.82 1001.09 999.30 997.47 996.05 995.83 994.96 994.73 994.78 994.84 995.39 995.65 997.05 997.54 997.83 997.89 999.52 1001.72 1002.31 1004.40 1005.31 1005.96 1005.89 1007.90 1008.49 1008.59 1009.54 1010.71 1011.92 1012.79 1013.78 1014.66 1015.54 1016.55 1017.36 1017.94 1018.72 1019.45 1019.76 1019.87 1020.19 1020.51 1020.67 1021.01
1003.07 1001.33 999.11 997.82 996.56 996.01 995.38 995.01 995.25 995.04 994.94 995.60 995.80 996.05 996.83 997.56 997.78 999.16 1000.84 1003.31 1002.78 1005.01 1005.16 1006.54 1008.40 1008.98 1009.29 1009.81 1010.90 1011.97 1012.80 1013.76 1014.71 1015.83 1016.48 1017.05 1017.76 1018.35 1018.75 1019.19 1019.59 1019.80 1019.87 1019.72
1001.81 1001.15 999.49 998.01 997.13 996.25 995.54 995.18 994.73 995.08 995.83 996.13 996.49 997.25 997.28 998.24 998.67 999.72 1000.74 1000.37 999.84 1003.11 1004.16 1005.59 1007.24 1008.26 1009.21 1009.71 1010.34 1011.14 1011.75 1012.77 1013.83 1014.60 1015.56 1016.35 1016.86 1017.41 1017.96 1018.15 1017.89 1017.82 1018.23 1018.70
1000.52 999.52 997.99 997.08 996.36 995.80 995.53 995.46 995.44 995.16 994.87 995.67 996.00 997.07 997.21 997.52 998.22 999.23 999.45 999.98 1001.19 1002.58 1003.43 1004.71 1006.06 1006.95 1007.96 1008.89 1009.67 1010.50 1011.09 1011.74 1012.79 1013.70 1014.53 1015.39 1016.14 1016.55 1016.38 1015.80 1016.59 1016.85 1017.06 1017.75
998.97 998.01 997.28 996.51 995.75 995.15 995.05 994.89 994.96 995.36 995.29 995.60 995.53 995.87 996.11 996.45 997.37 998.43 999.31 999.73 999.75 1000.18 1002.62 1003.86 1004.75 1005.24 1006.88 1007.74 1008.87 1009.49 1010.12 1010.76 1011.65 1012.39 1013.25 1014.09 1014.45 1014.52 1014.67 1015.00 1015.39 1015.88 1016.21 1016.57
997.82 997.31 996.68 996.28 995.59 995.30 995.10 994.61 994.65 994.83 994.52 994.34 994.77 994.80 995.33 995.96 996.73 998.10 999.58 1000.11 1000.29 1000.86 1001.82 1002.56 1003.45 1004.84 1005.95 1006.59 1007.36 1007.89 1008.66 1009.45 1010.29 1011.09 1011.38 1011.84 1012.32 1012.81 1013.62 1014.39 1014.83 1015.02 1015.27 1015.71
997.24 996.96 996.42 996.09 995.72 995.71 995.43 994.85 994.21 993.99 994.20 994.27 994.13 994.74 995.31 996.00 996.61 997.37 997.72 997.96 999.45 1000.13 1001.04 1002.20 1003.14 1003.93 1005.11 1006.02 1007.07 1007.02 1007.32 1008.09 1008.85 1010.00 1010.47 1010.52 1011.34 1012.28 1012.92 1013.61 1014.42 1014.86 1014.91 1014.97
996.95 996.75 996.34 996.09 995.93 995.80 995.23 994.92 994.73 994.38 994.10 994.09 994.25 994.72 995.13 995.30 995.78 997.01 998.21 998.51 999.30 1000.01 1000.75 1001.51 1002.13 1003.25 1004.54 1006.12 1006.52 1006.90 1007.46 1007.67 1008.22 1009.01 1009.87 1010.19 1010.44 1011.01 1011.21 1011.60 1012.43 1013.24 1014.03 1015.06
997.20 996.93 996.73 996.56 996.27 996.34 995.92 995.58 995.24 994.92 994.61 994.62 994.93 994.87 994.94 995.96 997.00 997.30 997.63 998.25 998.90 999.88 1000.69 1001.60 1002.80 1004.20 1004.96 1005.42 1005.96 1006.42 1006.80 1007.33 1007.84 1008.06 1008.58 1009.45 1009.54 1009.73 1010.25 1010.48 1011.10 1012.37 1012.75 1013.84
997.79 997.54 997.48 997.31 997.14 997.27 996.74 996.08 995.59 995.81 995.52 995.65 995.78 995.63 995.80 996.32 996.81 997.73 998.32 998.77 999.39 1000.30 1001.18 1002.12 1002.97 1003.45 1003.96 1004.63 1005.10 1005.13 1005.72 1006.01 1006.51 1007.31 1008.16 1008.65 1009.15 1009.79 1010.30 1010.30 1010.49 1011.81 1012.39 1012.95
998.57 998.39 998.25 998.05 998.01 997.80 997.39 996.57 996.17 996.64 996.47 996.43 996.81 996.68 996.62 996.75 997.13 997.57 997.97 998.71 999.59 1000.28 1000.92 1001.66 1002.16 1002.77 1003.28 1003.73 1004.34 1004.77 1005.34 1005.67 1005.97 1006.24 1006.66 1007.95 1008.80 1009.63 1009.96 1010.20 1009.86 1010.88 1011.78 1012.24
999.30 999.11 998.85 998.58 998.17 997.88 997.26 997.02 997.14 997.41 997.36 997.27 997.51 997.58 997.31 997.33 997.64 997.92 998.44 999.27 999.81 1000.23 1000.71 1001.10 1001.49 1002.29 1002.79 1003.45 1004.01 1004.66 1005.11 1005.76 1006.35 1006.89 1007.52 1007.81 1008.22 1008.90 1009.81 1010.37 1010.03 1010.50 1011.80 1012.24
Wind_Speed
6 11 7 20 17 10 5 5 9 6 13 19 8 8 16 20 21 19 15 14 13 11 8 8 10 11 12 11 12 13 13 11 10 8 8 8 8 9 7 8 7 7 8 7
3 7 15 18 18 14 7 9 14 6 13 9 8 3 16 19 20 18 18 17 15 13 13 13 13 13 13 13 13 13 13 12 10 9 9 7 9 9 8 7 7 7 7 6
5 3 10 13 18 14 8 8 14 11 13 5 5 11 19 21 20 19 19 18 17 18 15 13 14 16 15 14 13 12 12 11 10 8 8 9 9 9 7 7 6 6 6 7
4 3 5 9 22 25 21 18 17 19 9 4 7 16 19 21 20 20 20 18 16 15 13 13 13 13 14 13 13 13 12 12 10 10 10 9 9 8 6 5 6 5 6 5
3 6 6 2 11 13 13 11 19 22 18 7 5 15 11 21 24 25 23 20 18 18 17 16 15 15 15 13 12 13 13 12 11 11 11 10 10 7 5 6 5 4 4 5
2 5 9 9 8 8 9 8 15 13 13 10 8 14 14 15 20 19 18 17 16 17 17 17 15 15 15 14 13 13 13 13 11 10 10 10 9 9 4 5 5 5 6 5
3 3 8 9 8 8 9 10 13 17 14 7 7 7 17 16 18 21 20 19 18 18 18 17 16 14 14 13 12 12 12 12 11 9 9 9 9 7 6 6 6 6 7 4
3 3 4 5 5 13 10 4 15 13 12 9 9 8 16 21 20 19 19 17 17 17 15 15 15 15 14 12 11 12 12 12 11 10 9 9 11 6 7 7 7 6 6 5
8 8 6 3 5 8 8 8 7 16 12 14 12 11 20 21 20 21 23 20 17 18 17 14 14 15 15 12 14 12 11 11 11 9 9 11 11 9 7 6 6 5 5 5
4 8 9 5 4 6 6 6 4 6 12 13 11 16 23 21 20 18 19 19 17 19 17 15 13 13 13 15 14 14 12 11 10 11 9 8 6 7 7 6 5 5 5 4
5 8 12 18 5 4 5 6 7 12 8 11 12 10 23 20 20 20 19 17 19 19 18 18 16 15 16 16 16 14 12 10 10 8 9 6 4 3 6 5 7 7 5 5
5 12 9 20 10 5 4 2 3 6 4 8 13 12 17 19 20 19 19 17 16 17 18 18 17 17 17 17 17 16 13 10 9 7 4 5 5 4 7 4 5 10 10 8
9 23 26 28 8 9 9 9 5 9 12 7 4 10 18 14 15 15 17 20 20 21 20 20 18 17 18 18 17 17 14 12 8 8 7 7 5 6 5 5 9 6 14 12
26 23 13 2 6 8 12 17 7 2 13 19 16 14 17 13 11 7 12 9 9 12 18 20 20 20 18 18 17 15 12 12 9 8 7 7 6 6 5 7 6 3 2 1
27 15 13 12 10 6 4 10 9 12 14 13 15 20 23 18 13 9 6 10 13 12 10 14 18 18 17 16 16 15 11 9 9 7 7 8 7 5 4 5 5 5 2 1
21 23 12 8 7 7 5 6 10 14 21 16 14 16 21 24 20 12 15 15 12 16 19 16 15 16 18 17 16 13 11 14 11 8 8 8 7 7 6 6 6 6 6 6
18 21 10 12 7 6 6 3 6 4 7 19 24 23 20 18 16 15 14 20 23 21 18 16 14 14 17 18 18 12 11 11 15 9 10 10 9 9 9 8 8 8 8 9
18 25 16 9 7 5 8 5 4 5 11 11 10 9 18 21 24 24 23 18 15 13 17 18 17 17 17 17 17 13 12 12 11 11 10 10 10 9 9 10 12 12 10 9
22 19 9 9 8 5 6 5 3 3 3 7 10 14 16 16 19 14 17 16 19 18 19 20 25 25 21 21 19 12 11 13 13 11 11 11 9 10 12 14 11 12 11 9
18 9 8 8 4 3 4 6 6 5 7 7 12 11 18 15 11 13 19 25 28 19 19 22 24 22 21 21 23 13 13 15 13 12 11 12 13 15 13 13 11 11 10 10
8 7 7 7 3 6 6 4 2 5 5 5 9 14 17 16 16 17 17 13 17 15 20 24 20 15 15 18 21 16 15 15 15 13 14 14 15 14 11 8 7 9 9 8
3 4 5 2 4 3 4 5 7 5 6 7 5 7 11 13 16 16 16 13 8 18 14 14 15 20 16 24 16 16 16 16 14 12 10 13 11 9 8 5 5 5 6 7
3 2 1 3 2 0 2 6 6 5 3 7 10 10 13 12 13 13 9 8 10 15 13 14 18 23 18 15 14 13 12 14 12 12 13 9 10 10 9 12 10 8 7 7
3 4 4 4 6 3 6 4 6 7 5 7 6 6 11 8 4 3 5 9 14 14 12 12 12 15 15 13 11 6 9 12 12 11 12 13 11 9 9 8 7 7 7 9
6 6 6 6 6 3 1 1 7 6 7 7 6 5 7 4 5 5 7 7 15 14 10 14 21 23 14 13 14 14 12 14 14 12 11 10 9 7 6 7 8 7 8 8
6 6 4 5 3 2 2 2 6 4 3 6 4 4 4 4 5 6 7 9 11 12 10 11 12 14 14 13 11 11 6 7 8 8 10 7 7 6 7 6 7 8 8 9
6 6 6 4 4 5 6 7 5 4 4 4 5 3 3 5 5 6 8 7 8 9 9 11 11 12 9 7 6 5 6 6 6 6 6 6 6 6 6 6 6 7 6 6
Wind_Direction
198 205 124 128 151 182 163 157 199 274 215 254 251 199 162 162 162 160 167 161 159 162 152 137 116 117 118 117 121 121 114 110 112 110 103 106 100 99 93 83 86 77 75 64
150 167 142 133 173 170 161 181 254 310 249 228 188 185 166 163 158 158 163 160 158 145 144 139 134 130 128 126 122 120 119 123 126 124 120 114 104 95 90 86 81 78 70 76
254 166 117 128 173 166 150 200 210 235 239 187 154 175 183 161 158 153 156 154 151 150 151 145 143 139 136 127 124 121 125 130 131 123 112 105 107 104 103 100 103 95 80 77
221 90 147 229 174 168 177 194 211 228 237 218 182 175 175 163 158 154 153 152 147 143 135 136 132 126 122 124 127 130 131 133 134 130 127 123 119 119 115 112 108 103 94 90
169 169 247 106 156 163 157 210 202 222 237 158 259 142 184 163 160 159 165 160 162 149 143 136 136 134 126 127 130 132 138 141 143 142 138 137 133 129 121 113 108 100 108 88
79 161 188 231 183 193 145 201 207 234 226 154 149 163 185 170 155 155 151 153 150 141 137 135 140 137 132 138 140 143 148 148 149 145 143 141 133 133 130 124 121 115 92 80
176 226 284 228 157 131 133 226 201 202 230 151 165 204 166 152 157 156 158 156 147 145 148 144 141 138 136 141 148 148 146 146 143 143 143 133 134 132 133 122 110 103 101 79
113 162 250 251 88 161 209 242 188 213 221 148 181 184 167 161 158 157 153 149 146 142 145 147 145 138 143 146 146 149 150 147 149 148 145 141 141 137 131 129 124 120 115 92
173 211 222 357 318 262 172 188 161 185 219 163 175 172 176 165 164 164 157 157 152 146 144 150 149 148 146 149 148 151 149 150 151 144 146 152 146 145 137 137 134 142 130 125
33 302 293 316 277 331 165 154 193 189 172 157 177 179 183 170 167 163 162 156 151 145 149 152 154 150 145 150 150 152 154 160 156 155 157 154 151 154 150 153 151 151 150 153
254 269 302 281 213 316 315 345 180 189 158 142 139 192 186 174 168 166 163 157 159 155 158 156 154 149 151 156 153 155 160 164 165 167 167 144 97 140 163 177 175 172 183 162
274 281 251 265 146 152 85 48 281 182 57 75 188 179 178 181 166 164 159 158 160 156 155 156 155 154 158 160 162 159 165 171 171 162 131 122 129 95 48 47 246 229 166 161
297 306 291 265 210 193 162 215 265 127 120 111 108 170 164 171 168 162 156 161 163 166 162 156 156 161 165 166 165 168 170 172 162 153 145 145 143 144 131 26 59 78 151 157
302 302 311 242 227 223 152 199 218 108 150 124 118 96 93 87 74 101 150 143 133 163 161 161 163 169 173 169 164 167 168 159 164 155 153 151 156 153 150 149 143 136 48 140
285 275 270 275 41 14 119 131 171 159 160 146 133 134 128 125 119 119 124 136 134 143 182 175 169 170 166 167 167 165 165 163 158 149 156 156 159 158 157 148 153 153 135 7
305 302 302 332 36 9 44 51 161 176 168 164 146 166 162 151 148 153 163 144 153 179 173 182 186 166 163 165 167 163 164 162 163 154 162 165 165 164 172 171 167 180 179 192
286 297 318 322 359 350 357 1 101 168 143 163 176 180 162 168 161 186 187 167 189 183 175 170 181 171 168 167 167 170 167 166 164 166 177 177 174 181 184 179 185 192 209 204
259 265 260 265 286 325 320 333 338 114 164 191 144 144 165 182 184 189 195 204 131 166 172 172 170 166 173 173 172 174 171 169 174 177 177 180 187 184 181 191 198 197 206 209
253 260 275 283 276 287 266 273 216 214 296 182 163 179 189 188 190 182 158 161 170 176 188 174 170 166 174 179 175 176 177 171 178 177 180 182 186 196 203 205 201 206 203 200
246 265 277 279 302 339 252 262 250 199 206 189 220 193 195 194 164 157 170 179 189 191 171 172 169 171 177 174 176 178 179 181 176 176 174 187 195 207 212 207 202 198 198 197
220 262 287 272 30 28 13 343 244 256 252 258 162 175 181 178 172 170 176 184 192 173 170 163 170 176 180 175 177 182 181 183 181 178 182 189 200 207 207 206 193 188 196 196
230 278 306 269 84 65 5 9 358 306 196 198 185 137 151 161 166 178 190 185 158 154 159 166 179 182 178 176 193 190 184 183 182 187 193 195 202 198 196 175 173 193 187 182
272 245 150 55 59 186 54 44 14 358 106 151 154 155 166 170 166 164 180 183 154 167 162 174 178 174 176 180 192 192 189 184 177 184 204 196 191 185 174 181 187 176 175 199
77 68 62 43 60 52 56 31 43 10 47 73 94 135 139 134 81 75 86 141 144 155 166 174 162 151 165 182 182 170 170 183 189 192 199 199 204 196 200 192 165 160 162 182
55 55 45 46 51 10 5 17 84 46 63 51 46 78 108 117 137 162 137 140 146 151 157 152 157 162 174 184 187 175 176 179 192 194 201 202 192 186 191 188 166 160 162 173
31 45 24 27 55 14 9 42 77 45 55 78 38 44 78 88 101 130 132 138 155 148 151 163 170 176 186 188 190 197 203 207 202 203 182 154 157 180 196 187 149 155 167 168
20 350 12 12 32 37 40 47 65 58 44 74 89 17 99 118 125 119 119 137 147 158 165 174 176 180 173 161 149 135 127 130 136 137 155 150 141 152 168 182 149 138 165 141